OCN132W EDDF-FYWH

Flight info

Callsign OCN132W
Flight time N/A
Altitude 37000
Route ANEKI3F ANEKI Y163 NATOR DCT TRA DCT RIPUS DCT GERSA DCT SOSON DCT ODINA DCT PIDAD DCT TALEP DCT VAREK DCT ERPIN DCT ETOIL DCT CIRTA UA605 CSO UM2 DJA UB730 DIR UA607 FL UA403 BZ DCT KSA UT943 VEDRY
Aircraft A333/H-SDE3GHIJ2J3J5M1RVWXY/LB2D1

Departure

Time N/A
Airport Frankfurt Main Airport (EDDF)

Arrival

Time 2026-04-27 15:00
Airport Hosea Kutako International Airport (FYWH)
Time Latitude Longitude Altitude Speed Heading
2026-04-27 13:26 -11.69163 16.21355 36957 ft 461 kts 172°
2026-04-27 13:27 -11.75506 16.22026 36951 ft 461 kts 172°
2026-04-27 13:27 -11.81902 16.22703 36954 ft 461 kts 172°
2026-04-27 13:28 -11.88282 16.23378 36957 ft 461 kts 172°
2026-04-27 13:28 -11.94626 16.24050 36959 ft 461 kts 172°
2026-04-27 13:29 -12.01007 16.24727 36965 ft 461 kts 172°
2026-04-27 13:29 -12.07387 16.25403 36964 ft 461 kts 172°
2026-04-27 13:30 -12.13774 16.26080 36973 ft 461 kts 172°
2026-04-27 13:30 -12.20158 16.26758 36973 ft 461 kts 172°
2026-04-27 13:31 -12.26542 16.27441 36971 ft 461 kts 172°
2026-04-27 13:31 -12.32919 16.28138 36980 ft 461 kts 172°
2026-04-27 13:32 -12.39254 16.28834 36976 ft 461 kts 172°
2026-04-27 13:32 -12.45632 16.29534 36985 ft 461 kts 172°
2026-04-27 13:33 -12.52025 16.30235 36983 ft 461 kts 172°
2026-04-27 13:33 -12.58408 16.30934 36988 ft 461 kts 172°
2026-04-27 13:34 -12.64798 16.31634 36988 ft 461 kts 172°
2026-04-27 13:34 -12.71146 16.32331 36991 ft 461 kts 172°
2026-04-27 13:35 -12.77538 16.33033 36990 ft 461 kts 172°
2026-04-27 13:35 -12.83922 16.33734 36988 ft 462 kts 172°
2026-04-27 13:36 -12.90310 16.34436 36988 ft 462 kts 172°
2026-04-27 13:36 -12.96707 16.35139 36987 ft 461 kts 172°
2026-04-27 13:37 -13.03081 16.35840 36982 ft 460 kts 172°
2026-04-27 13:37 -13.09459 16.36542 36982 ft 461 kts 172°
2026-04-27 13:38 -13.15786 16.37239 36980 ft 461 kts 172°
2026-04-27 13:38 -13.22167 16.37942 36979 ft 461 kts 172°
2026-04-27 13:39 -13.28543 16.38644 36980 ft 461 kts 172°
2026-04-27 13:39 -13.34923 16.39348 36979 ft 461 kts 172°
2026-04-27 13:40 -13.41310 16.40053 36979 ft 462 kts 172°
2026-04-27 13:40 -13.47699 16.40759 36980 ft 462 kts 172°
2026-04-27 13:41 -13.54084 16.41464 36980 ft 462 kts 172°
2026-04-27 13:41 -13.60476 16.42170 36980 ft 461 kts 172°
2026-04-27 13:42 -13.66872 16.42877 36976 ft 462 kts 172°
2026-04-27 13:42 -13.73225 16.43580 36977 ft 462 kts 172°
2026-04-27 13:43 -13.79624 16.44289 36977 ft 462 kts 172°
2026-04-27 13:43 -13.86022 16.44997 36977 ft 462 kts 172°
2026-04-27 13:44 -13.92435 16.45708 36978 ft 462 kts 172°
2026-04-27 13:44 -13.98832 16.46418 36977 ft 462 kts 172°
2026-04-27 13:45 -14.05235 16.47128 36977 ft 463 kts 172°
2026-04-27 13:45 -14.11651 16.47841 36974 ft 464 kts 172°
2026-04-27 13:46 -14.18025 16.48549 36973 ft 464 kts 172°
2026-04-27 13:46 -14.24447 16.49263 36972 ft 464 kts 172°
2026-04-27 13:47 -14.30869 16.49977 36971 ft 464 kts 172°
2026-04-27 13:47 -14.37292 16.50692 36970 ft 464 kts 173°
2026-04-27 13:48 -14.43727 16.51409 36968 ft 465 kts 173°
2026-04-27 13:48 -14.50122 16.52121 36969 ft 465 kts 173°
2026-04-27 13:49 -14.56554 16.52838 36969 ft 465 kts 173°
2026-04-27 13:49 -14.62991 16.53556 36968 ft 465 kts 173°
2026-04-27 13:50 -14.69434 16.54275 36969 ft 465 kts 173°
2026-04-27 13:50 -14.75873 16.54994 36965 ft 465 kts 173°
2026-04-27 13:51 -14.82313 16.55714 36969 ft 465 kts 173°
2026-04-27 13:51 -14.88711 16.56429 36964 ft 465 kts 173°
2026-04-27 13:52 -14.95148 16.57149 36962 ft 465 kts 173°
2026-04-27 13:52 -15.00493 16.57747 36963 ft 465 kts 173°
2026-04-27 13:53 -15.10153 16.58830 36963 ft 465 kts 173°
2026-04-27 13:54 -15.16591 16.59551 36964 ft 465 kts 173°
2026-04-27 13:54 -15.23034 16.60280 36962 ft 465 kts 173°
2026-04-27 13:55 -15.29471 16.61016 36960 ft 465 kts 173°
2026-04-27 13:55 -15.35910 16.61753 36960 ft 465 kts 173°
2026-04-27 13:56 -15.42313 16.62486 36963 ft 466 kts 173°
2026-04-27 13:56 -15.48775 16.63225 36960 ft 467 kts 173°
2026-04-27 13:57 -15.55229 16.63963 36961 ft 467 kts 173°
2026-04-27 13:57 -15.61693 16.64704 36961 ft 467 kts 173°
2026-04-27 13:58 -15.68150 16.65443 36958 ft 467 kts 173°
2026-04-27 13:58 -15.74613 16.66184 36952 ft 467 kts 173°
2026-04-27 13:59 -15.81074 16.66926 36951 ft 467 kts 173°
2026-04-27 13:59 -15.87540 16.67669 36949 ft 467 kts 173°
2026-04-27 14:00 -15.94005 16.68411 36950 ft 467 kts 173°
2026-04-27 14:00 -16.00427 16.69150 36952 ft 467 kts 173°
2026-04-27 14:01 -16.06897 16.69894 36952 ft 468 kts 173°
2026-04-27 14:01 -16.13367 16.70639 36946 ft 467 kts 173°
2026-04-27 14:02 -16.19831 16.71383 36947 ft 467 kts 173°
2026-04-27 14:02 -16.26302 16.72129 36944 ft 467 kts 173°
2026-04-27 14:03 -16.32768 16.72875 36944 ft 467 kts 173°
2026-04-27 14:03 -16.39191 16.73617 36941 ft 467 kts 174°
2026-04-27 14:04 -16.45655 16.74363 36941 ft 468 kts 174°
2026-04-27 14:04 -16.52137 16.75113 36938 ft 468 kts 174°
2026-04-27 14:05 -16.58622 16.75862 36938 ft 468 kts 174°
2026-04-27 14:05 -16.65103 16.76613 36938 ft 468 kts 174°
2026-04-27 14:06 -16.71581 16.77363 36937 ft 468 kts 174°
2026-04-27 14:06 -16.78064 16.78115 36940 ft 469 kts 174°
2026-04-27 14:07 -16.84506 16.78862 36940 ft 469 kts 174°
2026-04-27 14:07 -16.91001 16.79615 36941 ft 469 kts 174°
2026-04-27 14:08 -16.97501 16.80370 36941 ft 469 kts 174°
2026-04-27 14:08 -17.03996 16.81125 36943 ft 469 kts 174°
2026-04-27 14:09 -17.10495 16.81881 36945 ft 470 kts 174°
2026-04-27 14:09 -17.17000 16.82638 36944 ft 470 kts 174°
2026-04-27 14:10 -17.23504 16.83396 36943 ft 470 kts 174°
2026-04-27 14:10 -17.29971 16.84149 36949 ft 470 kts 174°
2026-04-27 14:11 -17.36480 16.84909 36953 ft 470 kts 175°
2026-04-27 14:11 -17.42987 16.85666 36947 ft 470 kts 174°
2026-04-27 14:12 -17.49494 16.86417 36946 ft 470 kts 175°
2026-04-27 14:12 -17.56011 16.87170 36948 ft 470 kts 175°
2026-04-27 14:13 -17.62480 16.87918 36953 ft 470 kts 175°
2026-04-27 14:13 -17.68998 16.88673 36954 ft 470 kts 174°
2026-04-27 14:14 -17.75507 16.89428 36949 ft 470 kts 175°
2026-04-27 14:14 -17.82013 16.90183 36950 ft 470 kts 175°
2026-04-27 14:15 -17.88523 16.90939 36955 ft 470 kts 175°
2026-04-27 14:15 -17.95029 16.91695 36950 ft 470 kts 175°
2026-04-27 14:16 -18.01495 16.92447 36956 ft 470 kts 175°
2026-04-27 14:16 -18.08008 16.93204 36957 ft 470 kts 175°
2026-04-27 14:17 -18.14512 16.93961 36951 ft 470 kts 175°
2026-04-27 14:17 -18.21027 16.94720 36955 ft 470 kts 175°
2026-04-27 14:18 -18.27538 16.95480 36959 ft 470 kts 175°
2026-04-27 14:18 -18.34048 16.96239 36953 ft 470 kts 175°
2026-04-27 14:19 -18.40521 16.96996 36956 ft 471 kts 175°
2026-04-27 14:19 -18.47040 16.97758 36958 ft 471 kts 175°
2026-04-27 14:20 -18.53557 16.98520 36958 ft 471 kts 175°
2026-04-27 14:20 -18.60081 16.99284 36960 ft 471 kts 175°
2026-04-27 14:21 -18.66598 17.00047 36954 ft 471 kts 175°
2026-04-27 14:21 -18.73116 17.00812 36955 ft 471 kts 176°
2026-04-27 14:22 -18.79633 17.01576 36958 ft 471 kts 176°
2026-04-27 14:22 -18.86112 17.02337 36953 ft 471 kts 176°
2026-04-27 14:23 -18.92623 17.03102 36959 ft 471 kts 176°
2026-04-27 14:23 -18.99136 17.03869 36956 ft 471 kts 176°
2026-04-27 14:24 -19.05653 17.04636 36955 ft 471 kts 176°
2026-04-27 14:24 -19.12172 17.05403 36961 ft 470 kts 176°
2026-04-27 14:25 -19.18637 17.06172 36961 ft 469 kts 176°
2026-04-27 14:25 -19.25131 17.06963 36970 ft 469 kts 176°
2026-04-27 14:26 -19.31631 17.07759 36979 ft 470 kts 176°
2026-04-27 14:26 -19.38125 17.08552 36963 ft 470 kts 176°
2026-04-27 14:27 -19.44636 17.09347 36969 ft 470 kts 176°
2026-04-27 14:27 -19.51097 17.10137 36972 ft 470 kts 176°
2026-04-27 14:28 -19.57606 17.10932 36973 ft 470 kts 176°
2026-04-27 14:28 -19.64103 17.11728 36978 ft 470 kts 176°
2026-04-27 14:29 -19.70611 17.12524 36978 ft 471 kts 176°
2026-04-27 14:29 -19.77093 17.13319 36978 ft 472 kts 176°
2026-04-27 14:30 -19.83611 17.14118 36977 ft 472 kts 176°
2026-04-27 14:30 -19.90138 17.14920 36982 ft 472 kts 176°
2026-04-27 14:31 -19.96663 17.15722 36989 ft 472 kts 176°
2026-04-27 14:31 -20.03187 17.16524 36986 ft 472 kts 176°
2026-04-27 14:32 -20.09709 17.17327 36988 ft 472 kts 176°
2026-04-27 14:32 -20.16240 17.18131 36995 ft 472 kts 176°
2026-04-27 14:33 -20.22767 17.18936 36986 ft 472 kts 176°
2026-04-27 14:33 -20.29250 17.19736 36998 ft 472 kts 177°
2026-04-27 14:34 -20.35779 17.20542 36994 ft 472 kts 177°
2026-04-27 14:34 -20.42317 17.21350 36989 ft 473 kts 177°
2026-04-27 14:35 -20.48848 17.22158 36988 ft 472 kts 177°
2026-04-27 14:35 -20.55389 17.22969 36986 ft 473 kts 177°
2026-04-27 14:36 -20.61931 17.23779 36990 ft 473 kts 177°
2026-04-27 14:36 -20.68452 17.24587 36981 ft 476 kts 177°
2026-04-27 14:37 -20.75028 17.25403 36979 ft 476 kts 177°
2026-04-27 14:37 -20.81609 17.26099 36977 ft 471 kts 186°
2026-04-27 14:38 -20.88141 17.25831 36977 ft 470 kts 186°
2026-04-27 14:38 -20.94681 17.25531 36979 ft 470 kts 187°
2026-04-27 14:39 -21.01218 17.25202 36975 ft 470 kts 187°
2026-04-27 14:39 -21.07755 17.24866 36976 ft 470 kts 187°
2026-04-27 14:40 -21.14299 17.24527 36979 ft 470 kts 187°
2026-04-27 14:40 -21.17548 17.24356 36687 ft 476 kts 187°
2026-04-27 14:40 -21.20853 17.24184 35717 ft 476 kts 187°
2026-04-27 14:40 -21.24165 17.24012 34620 ft 477 kts 187°
2026-04-27 14:41 -21.27496 17.23838 33230 ft 481 kts 187°
2026-04-27 14:41 -21.30860 17.23661 31719 ft 485 kts 187°
2026-04-27 14:41 -21.34255 17.23484 30262 ft 488 kts 187°
2026-04-27 14:41 -21.37640 17.23308 28860 ft 485 kts 186°
2026-04-27 14:42 -21.40969 17.23138 27835 ft 472 kts 186°
2026-04-27 14:42 -21.44223 17.22970 26742 ft 463 kts 186°
2026-04-27 14:42 -21.47401 17.22806 25764 ft 451 kts 186°
2026-04-27 14:42 -21.50432 17.22650 25247 ft 431 kts 186°
2026-04-27 14:43 -21.53356 17.22499 24786 ft 411 kts 186°
2026-04-27 14:43 -21.56151 17.22355 24333 ft 394 kts 186°
2026-04-27 14:43 -21.58835 17.22214 23904 ft 379 kts 186°
2026-04-27 14:43 -21.61468 17.22074 23468 ft 379 kts 186°
2026-04-27 14:44 -21.63221 17.21979 23137 ft 379 kts 186°
2026-04-27 14:44 -21.65854 17.21838 22698 ft 378 kts 186°
2026-04-27 14:44 -21.68480 17.21700 22280 ft 376 kts 186°
2026-04-27 14:44 -21.71088 17.21562 21853 ft 375 kts 186°
2026-04-27 14:45 -21.73692 17.21425 21429 ft 373 kts 186°
2026-04-27 14:45 -21.76276 17.21289 21004 ft 371 kts 185°
2026-04-27 14:45 -21.78851 17.21154 20583 ft 370 kts 185°
2026-04-27 14:45 -21.81415 17.21019 20174 ft 368 kts 185°
2026-04-27 14:46 -21.83974 17.20885 19766 ft 367 kts 185°
2026-04-27 14:46 -21.86491 17.20752 19336 ft 365 kts 185°
2026-04-27 14:46 -21.89023 17.20619 18929 ft 364 kts 185°
2026-04-27 14:46 -21.91547 17.20487 18521 ft 362 kts 185°
2026-04-27 14:47 -21.94063 17.20354 18069 ft 361 kts 185°
2026-04-27 14:47 -21.96563 17.20223 17619 ft 359 kts 185°
2026-04-27 14:47 -21.99050 17.20092 17207 ft 356 kts 185°
2026-04-27 14:47 -22.01517 17.19963 16797 ft 354 kts 185°
2026-04-27 14:48 -22.03974 17.19833 16380 ft 352 kts 185°
2026-04-27 14:48 -22.08831 17.19576 15545 ft 351 kts 184°
2026-04-27 14:48 -22.11263 17.19448 15129 ft 349 kts 185°
2026-04-27 14:49 -22.13686 17.19320 14722 ft 347 kts 185°
2026-04-27 14:49 -22.16099 17.19193 14315 ft 346 kts 185°
2026-04-27 14:49 -22.18499 17.19065 13896 ft 344 kts 184°
2026-04-27 14:49 -22.20888 17.18939 13450 ft 343 kts 184°
2026-04-27 14:50 -22.23270 17.18815 13036 ft 340 kts 184°
2026-04-27 14:50 -22.25620 17.18691 12655 ft 337 kts 184°
2026-04-27 14:50 -22.27921 17.18570 12273 ft 334 kts 184°
2026-04-27 14:50 -22.30237 17.18447 11881 ft 332 kts 185°
2026-04-27 14:51 -22.32541 17.18326 11493 ft 330 kts 185°
2026-04-27 14:51 -22.34797 17.18207 11355 ft 318 kts 185°
2026-04-27 14:51 -22.36960 17.18094 11272 ft 305 kts 185°
2026-04-27 14:51 -22.39038 17.17986 11148 ft 294 kts 185°
2026-04-27 14:52 -22.41041 17.17882 11023 ft 280 kts 185°
2026-04-27 14:52 -22.42941 17.17782 10915 ft 266 kts 185°
2026-04-27 14:52 -22.44751 17.17686 10786 ft 255 kts 186°
2026-04-27 14:52 -22.46457 17.17595 10666 ft 243 kts 186°
2026-04-27 14:53 -22.48106 17.17507 10524 ft 234 kts 186°
2026-04-27 14:53 -22.49709 17.17421 10295 ft 227 kts 187°
2026-04-27 14:53 -22.51260 17.17338 10274 ft 220 kts 186°
2026-04-27 14:53 -22.52766 17.17283 10175 ft 214 kts 181°
2026-04-27 14:54 -22.54205 17.17684 9918 ft 220 kts 150°
2026-04-27 14:54 -22.55246 17.18905 9639 ft 225 kts 120°
2026-04-27 14:54 -22.55966 17.20415 9401 ft 227 kts 114°
2026-04-27 14:54 -22.56630 17.21969 9160 ft 227 kts 114°
2026-04-27 14:55 -22.57291 17.23515 8961 ft 225 kts 114°
2026-04-27 14:55 -22.57717 17.25125 8705 ft 222 kts 90°
2026-04-27 14:55 -22.57415 17.26698 8485 ft 215 kts 65°
2026-04-27 14:55 -22.56788 17.28153 8270 ft 212 kts 59°
2026-04-27 14:56 -22.56104 17.29590 8143 ft 214 kts 59°
2026-04-27 14:56 -22.55444 17.30980 8117 ft 203 kts 59°
2026-04-27 14:56 -22.54824 17.32302 8112 ft 191 kts 59°
2026-04-27 14:56 -22.54237 17.33562 7931 ft 187 kts 60°
2026-04-27 14:57 -22.53650 17.34822 7636 ft 189 kts 59°
2026-04-27 14:57 -22.53056 17.36104 7351 ft 189 kts 59°
2026-04-27 14:57 -22.52475 17.37361 7086 ft 185 kts 59°
2026-04-27 14:57 -22.51920 17.38570 6898 ft 172 kts 61°
2026-04-27 14:58 -22.51407 17.39686 6665 ft 165 kts 61°
2026-04-27 14:58 -22.50903 17.40778 6318 ft 159 kts 60°
2026-04-27 14:58 -22.50414 17.41835 6157 ft 155 kts 62°
2026-04-27 14:58 -22.49939 17.42876 6106 ft 155 kts 61°
2026-04-27 14:59 -22.49466 17.43914 5920 ft 149 kts 62°
2026-04-27 14:59 -22.49013 17.44892 5678 ft 143 kts 62°
2026-04-27 14:59 -22.48584 17.45814 5622 ft 120 kts 63°
2026-04-27 14:59 -22.48292 17.46440 5607 ft 75 kts 63°
2026-04-27 15:00 -22.48089 17.46881 5587 ft 51 kts 64°
2026-04-27 15:00 -22.48009 17.47057 5583 ft 18 kts 63°
2026-04-27 15:00 -22.48033 17.47135 5583 ft 11 kts 136°
2026-04-27 15:00 -22.48075 17.47154 5584 ft 2 kts 212°
2026-04-27 15:01 -22.48085 17.47140 5582 ft 5 kts 231°
2026-04-27 15:01 -22.48134 17.47046 5581 ft 22 kts 243°
2026-04-27 15:01 -22.48204 17.46891 5584 ft 22 kts 243°
2026-04-27 15:01 -22.48272 17.46747 5598 ft 21 kts 242°
2026-04-27 15:02 -22.48335 17.46613 5603 ft 20 kts 243°
2026-04-27 15:02 -22.48394 17.46487 5603 ft 18 kts 244°
2026-04-27 15:02 -22.48445 17.46370 5612 ft 17 kts 244°
2026-04-27 15:02 -22.48480 17.46293 5610 ft 5 kts 243°
2026-04-27 15:03 -22.48507 17.46272 5609 ft 7 kts 185°
2026-04-27 15:03 -22.48553 17.46293 5613 ft 7 kts 154°
2026-04-27 15:03 -22.48591 17.46313 5611 ft 2 kts 154°
2026-04-27 15:03 -22.48606 17.46321 5612 ft 0 kts 153°
2026-04-27 15:04 -22.48611 17.46319 5611 ft 1 kts 186°
2026-04-27 15:04 -22.48615 17.46311 5609 ft 0 kts 232°
2026-04-27 15:04 -22.48615 17.46307 5615 ft 0 kts 254°
2026-04-27 15:05 -22.48610 17.46300 5615 ft 1 kts 298°
2026-04-27 15:05 -22.48599 17.46301 5613 ft 2 kts
2026-04-27 15:05 -22.48598 17.46301 5613 ft 0 kts
2026-04-27 15:07 -22.48577 17.46312 5613 ft 0 kts 317°